WB7UVH Weather Reports


Display with metric or nautical units.
time (UTC)temp
F
wind
direction
speed
MPH
gust
MPH
rain 1hr
in
rain 24hr
in
rain mn
in
humidity
%
barometer
mb
20260902130004 62 317 0.0 0.0 0.00 0.02 0.00 77 1014.0
20260902124505 62 317 0.0 0.0 0.00 0.02 0.00 76 1014.1
20260902123005 62 309 0.0 0.0 0.00 0.02 0.00 75 1014.4
20260902121505 62 269 0.0 0.0 0.00 0.02 0.00 76 1014.5
20260902120004 62 321 0.0 0.0 0.00 0.02 0.00 74 1014.5
20260902111504 62 313 0.0 0.0 0.00 0.02 0.00 76 1014.8
20260902110007 62 313 0.0 0.0 0.00 0.02 0.00 76 1014.7
20260902104505 62 263 0.0 0.0 0.00 0.02 0.00 76 1014.8
20260902103004 62 263 0.0 0.0 0.00 0.02 0.00 75 1015.2
20260902101504 62 263 0.0 0.0 0.00 0.02 0.00 75 1015.4
20260902100004 62 272 0.0 0.0 0.00 0.02 0.00 76 1015.5
20260902094504 62 272 0.0 0.0 0.00 0.02 0.00 75 1015.4
20260902093006 63 273 0.0 0.0 0.00 0.02 0.00 75 1015.6
20260902091504 63 252 0.0 0.0 0.00 0.02 0.00 74 1015.6
20260902090005 63 254 0.0 0.0 0.00 0.02 0.00 74 1015.7
20260902084504 63 258 0.0 0.0 0.00 0.02 0.00 76 1015.8
20260902083005 63 259 0.0 0.0 0.00 0.02 0.00 76 1015.7
20260902081504 63 257 0.0 0.0 0.00 0.02 0.00 76 1015.6
20260902080005 63 259 0.0 0.0 0.00 0.02 0.00 76 1015.6
20260902073004 63 259 0.0 0.0 0.00 0.02 0.00 76 1015.8
20260902070006 63 259 0.0 0.0 0.00 0.02 0.00 76 1016.2
20260902063005 64 259 0.0 0.0 0.00 0.02 0.02 75 1016.4
20260902061504 64 259 0.0 0.0 0.00 0.02 0.02 74 1016.5
20260902054504 64 295 0.0 6.0 0.00 0.02 0.02 73 1016.6
20260902053005 64 286 0.0 0.0 0.00 0.02 0.02 73 1016.5
20260902051504 64 252 0.0 0.0 0.00 0.02 0.02 73 1016.4
20260902050007 65 257 0.0 0.0 0.00 0.02 0.02 72 1016.3
20260902044504 65 243 0.0 0.0 0.00 0.02 0.02 72 1016.2
20260902043005 65 242 0.0 1.0 0.00 0.02 0.02 71 1016.3
20260902041505 65 247 0.0 1.0 0.00 0.02 0.02 71 1016.2
20260902040004 66 244 0.0 9.0 0.00 0.02 0.02 69 1016.0
20260902034504 66 245 0.0 3.0 0.00 0.02 0.02 69 1016.0
20260902033004 66 256 0.0 0.0 0.00 0.02 0.02 69 1015.6
20260902030004 66 240 0.0 5.0 0.00 0.02 0.02 67 1015.7
20260902023005 67 247 0.0 8.0 0.00 0.02 0.02 66 1015.5
20260902021505 67 227 1.0 6.0 0.00 0.02 0.02 65 1015.5
20260902020004 67 229 0.0 0.0 0.00 0.02 0.02 68 1015.5
20260902014504 67 248 0.0 0.0 0.00 0.02 0.02 70 1015.4
20260902013006 67 264 0.0 0.0 0.00 0.02 0.02 71 1015.4
20260902011504 68 266 0.0 0.0 0.00 0.02 0.02 70 1015.3
20260902010005 68 266 0.0 0.0 0.00 0.02 0.02 69 1015.2
20260902004504 69 272 0.0 0.0 0.00 0.02 0.02 68 1015.0
20260902003004 69 275 0.0 0.0 0.00 0.02 0.02 68 1015.0
20260902001504 69 258 0.0 0.0 0.00 0.02 0.02 68 1015.0
20260902000004 69 245 0.0 0.0 0.00 0.02 0.02 68 1015.0
20260901234504 69 244 0.0 0.0 0.00 0.02 0.02 68 1015.1
20260901233005 69 207 0.0 0.0 0.00 0.02 0.02 67 1015.3
20260901231504 69 269 0.0 0.0 0.00 0.02 0.02 69 1015.4
20260901230005 69 245 0.0 0.0 0.00 0.02 0.02 68 1015.4
20260901224505 69 279 0.0 0.0 0.00 0.02 0.02 66 1015.5
20260901223006 70 264 0.0 0.0 0.00 0.02 0.02 66 1015.6
20260901221504 69 286 0.0 0.0 0.00 0.02 0.02 68 1015.7
20260901220005 68 258 0.0 0.0 0.00 0.02 0.02 71 1015.7
20260901214505 67 246 0.0 0.0 0.00 0.02 0.02 73 1015.8
20260901213005 66 255 0.0 0.0 0.00 0.02 0.02 72 1015.8
20260901211504 66 255 0.0 0.0 0.00 0.02 0.02 73 1015.9
20260901210004 67 257 0.0 0.0 0.00 0.02 0.02 73 1015.9
20260901204504 67 257 0.0 0.0 0.00 0.02 0.02 72 1015.9
20260901203004 66 258 0.0 0.0 0.00 0.02 0.02 73 1015.9
20260901201504 66 262 0.0 0.0 0.00 0.02 0.02 72 1015.9
20260901200004 66 238 0.0 0.0 0.00 0.02 0.02 72 1016.1
20260901194504 65 323 0.0 0.0 0.00 0.02 0.02 75 1016.3
20260901191504 65 224 0.0 0.0 0.00 0.02 0.02 75 1016.5
20260901190005 65 19 0.0 0.0 0.00 0.02 0.02 73 1016.5
20260901184504 65 246 0.0 0.0 0.00 0.02 0.02 73 1016.6
20260901183004 65 5 0.0 0.0 0.01 0.02 0.02 73 1016.7
20260901180004 64 320 0.0 0.0 0.02 0.02 0.02 75 1016.9
20260901174504 64 242 0.0 3.0 0.02 0.02 0.02 75 1017.0
20260901173004 64 231 0.0 1.0 0.01 0.01 0.01 75 1016.9
20260901170004 63 265 0.0 0.0 0.00 0.00 0.00 76 1016.7
20260901164505 63 249 0.0 0.0 0.00 0.00 0.00 76 1016.7
20260901163004 63 244 0.0 0.0 0.00 0.00 0.00 77 1016.6
20260901161505 62 237 0.0 0.0 0.00 0.00 0.00 77 1016.6
20260901160004 62 268 0.0 0.0 0.00 0.00 0.00 77 1016.6
20260901154505 62 274 0.0 0.0 0.00 0.00 0.00 77 1016.6
20260901151504 62 271 0.0 0.0 0.00 0.00 0.00 78 1016.5
20260901150004 62 271 0.0 0.0 0.00 0.00 0.00 78 1016.6
20260901144504 61 262 0.0 0.0 0.00 0.00 0.00 78 1016.4
20260901143005 61 261 0.0 0.0 0.00 0.00 0.00 78 1016.4
20260901140004 61 261 0.0 0.0 0.00 0.00 0.00 78 1016.4
20260901133005 61 255 0.0 0.0 0.00 0.00 0.00 77 1016.2
20260901131505 61 246 0.0 0.0 0.00 0.00 0.00 78 1016.2